This demonstration page uses our WeatherBlox Daily Observations layout. Learn more.

Left ArrowRight Arrow

41.86663, -103.66717

Hourly Observations for July 29, 2018

Temp ( °F °C ) Dew Point ( °F °C ) Humidity (%) Winds ( mph kmh ) Pressure ( in mb ) Visibility ( mi km ) Precip ( " mm )
12:53 am 00:53 Clear 60 15.6 60 15.6 100 100 ENE 5 7 30.1 1019 10 16.0934 N/A
1:53 am 01:53 Clear 58 14.4 58 14.4 100 100 N N/A 30.1 1019 10 16.0934 N/A
2:53 am 02:53 Mostly Cloudy 60 15.6 60 15.6 100 100 NNE 12 19 30.11 1020 10 16.0934 N/A
3:46 am 03:46 Mostly Cloudy 61 16.1 61 16.1 100 100 N N/A 30.09 1019 10 16.0934 N/A
3:53 am 03:53 Mostly Cloudy 61 16.1 61 16.1 100 100 N N/A 30.11 1020 10 16.0934 N/A
4:53 am 04:53 Mostly Cloudy 59 15 59 15 100 100 SW 5 7 30.09 1019 10 16.0934 N/A
5:03 am 05:03 Mostly Clear 59 15 59 15 100 100 SSW 6 9 30.09 1019 9 14.48406 N/A
5:53 am 05:53 Sunny with Mist and Fog 58 14.4 58 14.4 100 100 SSW 5 7 30.07 1018 5 8.0467 N/A
6:53 am 06:53 Cloudy 60 15.6 60 15.6 100 100 WNW 7 11 30.12 1020 7 11.26538 0.01 0.254
7:53 am 07:53 Mostly Sunny 61 16.1 61 16.1 100 100 WNW 7 11 30.11 1020 8 12.87472 N/A
8:14 am 08:14 Partly Cloudy 63 17 63 17 100 100 N 13 20 30.06 1018 9 14.48406 N/A
8:53 am 08:53 Partly Cloudy 65 18.3 62 16.7 90 90 W 7 11 30.1 1019 10 16.0934 N/A
9:11 am 09:11 Mostly Cloudy 65 18.3 62 16.7 90 90 WNW 7 11 30.03 1017 10 16.0934 N/A
9:25 am 09:25 Mostly Cloudy 66 18.9 62 16.7 87 87 N N/A 30.03 1017 10 16.0934 N/A
9:53 am 09:53 Mostly Cloudy 67 19.4 62 16.7 84 84 N N/A 30.1 1019 10 16.0934 N/A
10:07 am 10:07 Partly Cloudy 68 20 62 16.7 81 81 SSW 5 7 29.97 1015 10 16.0934 N/A
10:53 am 10:53 Sunny 70 21.1 63 17.2 79 79 S 6 9 30.08 1019 10 16.0934 N/A
11:53 am 11:53 Cloudy 73 22.8 61 16.1 66 66 N 3 6 30.09 1019 10 16.0934 N/A
12:53 pm 12:53 Mostly Sunny 75 23.9 62 16.7 64 64 E 9 15 30.06 1018 10 16.0934 N/A
1:53 pm 13:53 Mostly Cloudy 73 22.8 60 15.6 64 64 E 6 9 30.07 1018 10 16.0934 N/A
2:09 pm 14:09 Cloudy with Nearby Thunderstorms 75 23.9 62 16.7 64 64 NE 10 17 29.91 1013 10 16.0934 N/A
2:38 pm 14:38 Mostly Sunny 66 19 55 13 68 68 E 16 26 30 1016 10 16.0934 N/A
2:45 pm 14:45 Sunny 69 20.6 55 12.8 61 61 E 16 26 29.97 1015 10 16.0934 N/A
2:53 pm 14:53 Sunny 71 21.7 55 12.8 57 57 E 15 24 30.06 1018 10 16.0934 N/A
3:53 pm 15:53 Sunny 70 21.1 53 11.7 55 55 ESE 12 19 30.05 1018 10 16.0934 N/A
4:53 pm 16:53 Mostly Cloudy 71 21.7 60 15.6 68 68 S 8 13 30.07 1018 10 16.0934 N/A
5:22 pm 17:22 Cloudy with Nearby Thunderstorms 70 21 63 17 78 78 S 7 11 29.94 1014 10 16.0934 N/A
5:37 pm 17:37 Cloudy 70 21.1 62 16.7 76 76 VRB 3 6 29.94 1014 10 16.0934 0.02 0.508
5:46 pm 17:46 Cloudy with Nearby Thunderstorms 69 20.6 61 16.1 76 76 S 3 6 29.97 1015 10 16.0934 0.02 0.508
5:53 pm 17:53 Cloudy with Nearby Thunderstorms 69 20.6 61 16.1 76 76 NNE 7 11 30.1 1019 9 14.48406 0.02 0.508
6:01 pm 18:01 Cloudy with Nearby Thunderstorms 64 17.8 61 16.1 90 90 N 18 30 30.09 1019 1.75 2.816345 0.07 1.778
6:14 pm 18:14 Cloudy with Nearby Thunderstorms 61 16 61 16 100 100 NE 13 20 30.06 1018 2 3.21868 N/A
6:22 pm 18:22 Cloudy with Light Rain 61 16 61 16 100 100 N N/A 30.06 1018 5 8.0467 N/A
6:29 pm 18:29 Cloudy with Nearby Thunderstorms 61 16.1 61 16.1 100 100 SSE 6 9 30.06 1018 7 11.26538 0.22 5.588
6:44 pm 18:44 Cloudy with Light Rain 61 16 61 16 100 100 S 6 9 30.03 1017 10 16.0934 N/A
6:53 pm 18:53 Mostly Cloudy 63 17 N/A N/A SSW 6 9 30.11 1020 10 16.0934 0.23 5.842
7:10 pm 19:10 Cloudy with Nearby Thunderstorms 63 17 N/A N/A SSW 5 7 30.06 1018 10 16.0934 N/A
7:25 pm 19:25 Cloudy with Light Rain 62 16.7 62 16.7 100 100 SW 7 11 30.06 1018 10 16.0934 N/A
7:53 pm 19:53 Mostly Sunny 61 16.1 61 16.1 100 100 W 5 7 30.14 1021 10 16.0934 N/A
8:53 pm 20:53 Cloudy with Rain 61 16.1 61 16.1 100 100 N 6 9 30.19 1022 6 9.65604 0.01 0.254
9:53 pm 21:53 Mostly Clear 59 15 59 15 100 100 WNW 5 7 30.19 1022 10 16.0934 0.01 0.254
10:53 pm 22:53 Clear 58 14.4 58 14.4 100 100 W 5 7 30.17 1022 10 16.0934 N/A
11:53 pm 23:53 Clear 56 13.3 56 13.3 100 100 NW 9 15 30.18 1022 10 16.0934 N/A

Powered by AerisWeather